SWARM B (39451 NORAD) Tracking and Keplerian Element Data

This shows tracking and keplerian element data for the satellite.

Feedback or suggestion? Click here.




ElementValue
Catalog39451
NameSWARM B
Epoch Orbit65553
Epoch Day351.71023028
Epoch Year2025
RAAN37.3525
Inclination87.7441
Eccentricity0.0003127
Argument of Perigee82.9666
Mean Anonmoly277.1938
Mean Motion15.2705308
Decay Rate2.957E-05
L11 39451U 13067A 25351.71023028 .00002957 00000+0 11017-3 0 9993
L22 39451 87.7441 37.3525 0003127 82.9666 277.1938 15.27053080655532



Live tracking and technical data element details for SWARM B (NORAD 39451). SWARM B can be tracked NOW for your location showing map with azimuth and elevation plus other details from your city location.







IsCatalogInMostPopularTable: catalog: 39451, numindb: 528
Update: records affected: 1



GetName: 39451 SWARM B

Hit Count: updated at: Sat, 07 Mar 2026 06:38:02 GMT